CAPE
1307 1239 1159 1214 1233 1323 1280 1349 1432 1461 1363 1290 1221 1118 1173 1180 1078 957 853 785 675 536 188 30 0 0 0 0 0 0 1 164 611 597 583 518 545 1233 1355 1273 1017 1058 871 623 528 470 274 188 163 151 96 40 55 19 6 15 247 475 551 265 45 4 1 0 0 0 0 0 2 1 0 0 1 0 0 1 1 1 1 1 1 2 0 0 0
1253 1274 1284 1235 1212 1280 1227 1124 1121 1317 1330 1304 1157 1092 1096 1126 1037 975 860 716 547 385 281 0 0 0 0 0 176 0 6 352 576 572 555 536 629 1036 1399 1174 980 972 1005 710 601 512 365 285 188 149 137 89 80 63 23 4 175 90 578 402 154 54 12 0 0 0 1 2 1 0 2 2 1 0 1 0 1 2 2 1 1 0 0 0 0
1280 1274 1242 1223 1201 1155 1068 1077 1050 1013 1149 1241 1179 1121 934 987 1044 1054 909 536 428 376 58 0 0 0 6 64 230 2 24 435 561 549 534 579 628 817 1084 1305 1069 1082 990 832 719 588 424 353 240 184 164 150 133 94 35 10 62 36 165 528 198 79 16 0 0 0 0 0 0 2 2 1 1 1 0 0 0 0 0 0 0 1 0 0 0
1287 1292 1224 1227 1208 1130 962 831 749 700 726 787 856 845 738 570 593 626 484 379 397 348 0 0 0 0 0 80 165 0 9 431 556 549 503 580 603 666 770 960 1042 1086 954 756 736 874 556 458 412 233 191 179 136 142 104 36 20 11 118 625 268 115 38 4 0 0 0 0 1 2 2 3 2 1 0 0 0 0 0 0 0 0 0 2 1
1126 1040 1158 1229 1207 1149 1047 967 892 836 785 818 1008 964 778 632 515 505 463 429 454 373 0 0 0 1 9 27 4 0 27 420 508 520 488 558 568 610 669 663 593 956 786 800 679 734 855 587 549 457 323 209 169 163 131 106 40 39 7 586 367 253 139 40 4 0 0 0 1 1 4 4 4 2 1 0 0 0 0 0 0 0 0 0 0
1088 1130 1180 1222 1187 1123 1149 1031 846 819 783 770 976 1036 1006 949 1066 1064 890 491 421 368 333 0 1 5 17 48 14 0 2 331 436 484 515 586 553 561 625 561 434 640 660 971 822 682 740 831 614 567 476 381 214 185 175 149 112 74 52 459 421 391 299 172 83 3 0 0 0 0 2 4 6 3 1 0 0 0 0 0 0 0 0 0 0
1048 1024 1099 1151 1128 1042 946 861 825 755 760 1047 1232 1268 1228 1240 1175 1044 722 495 445 440 398 286 62 8 0 1 9 2 7 201 344 437 490 556 512 629 670 604 531 579 673 667 885 818 694 701 894 714 620 555 310 341 241 155 130 108 85 292 185 85 368 261 199 95 7 0 0 1 3 4 6 8 4 1 0 0 0 0 0 0 0 0 0
1016 898 835 965 1022 1006 870 865 791 723 811 1073 1230 1374 1289 1116 1050 712 474 430 447 421 380 166 312 47 0 0 0 0 0 0 251 486 512 534 563 592 648 723 624 618 837 779 744 668 798 645 847 805 916 647 543 494 442 364 204 161 90 84 70 62 108 354 314 210 91 3 0 0 1 4 2 3 3 1 0 1 0 0 0 0 0 0 0
1006 833 894 817 887 787 791 786 864 900 944 1034 1191 1290 1223 948 822 580 552 534 485 466 394 25 80 363 362 3 0 144 9 0 0 387 513 547 583 637 709 679 673 1018 793 830 835 751 680 804 801 819 893 822 814 647 591 527 482 272 256 175 86 89 69 62 386 343 217 79 5 1 0 0 0 1 2 2 1 1 0 0 0 0 0 0 0
831 787 749 821 859 840 928 770 903 973 1083 1121 1252 1264 1198 964 812 672 710 659 642 483 115 20 91 64 29 326 328 0 268 0 0 0 373 493 585 683 687 673 659 667 771 801 834 830 756 697 852 958 992 756 701 954 730 707 647 550 354 363 225 168 118 69 190 417 371 219 80 18 1 0 0 0 1 1 2 2 1 1 0 0 0 0 0
625 637 641 713 864 812 728 780 751 856 831 879 1284 1329 1155 969 883 834 810 770 640 422 172 0 10 59 140 56 295 380 333 310 69 0 414 365 327 468 390 415 451 553 663 754 793 822 810 766 701 753 839 846 704 901 825 838 785 721 548 472 432 276 184 118 119 154 365 354 204 85 4 0 0 0 0 0 1 1 1 1 0 0 0 0 0
628 669 651 689 679 590 691 673 663 674 515 768 1072 1096 1105 1046 859 822 795 662 547 410 322 225 202 0 15 0 292 294 386 362 322 278 242 384 416 248 303 434 441 464 529 701 775 777 770 782 754 717 737 778 762 689 893 956 895 1194 785 691 682 506 264 203 122 101 103 387 341 201 27 4 0 0 0 0 1 1 1 1 1 1 0 1 0
433 486 566 633 633 647 668 580 657 751 809 896 865 851 950 1059 946 834 779 752 660 508 391 473 510 467 411 372 313 812 955 736 414 355 329 261 311 369 332 374 499 531 602 638 691 721 701 700 694 699 709 718 746 788 704 700 745 892 923 840 926 930 451 292 224 111 82 143 336 323 100 3 1 0 0 0 0 1 2 1 0 0 1 1 0
363 392 438 556 567 546 577 642 684 727 751 821 927 942 983 1040 874 859 861 837 747 602 590 511 554 472 524 436 391 359 926 869 634 441 272 57 82 176 219 335 336 292 474 614 721 820 801 719 658 624 609 658 695 734 766 740 684 713 1099 1142 1043 967 960 468 442 289 152 69 158 384 194 52 13 0 0 0 0 0 1 2 1 0 0 1 2
382 377 394 446 548 640 631 715 798 812 702 761 787 939 970 990 960 978 918 792 679 659 640 605 682 570 620 431 403 394 71 373 144 276 404 304 162 188 154 127 232 376 363 414 594 616 612 652 671 656 653 680 634 664 704 742 702 642 779 1029 1143 1090 1216 919 783 652 372 174 137 239 390 162 36 1 0 0 0 0 0 0 0 0 0 0 0
0 309 422 502 688 740 801 757 686 586 728 742 781 830 901 963 924 931 862 860 743 687 647 726 666 612 542 458 443 320 236 30 318 382 505 413 252 225 116 51 238 422 355 266 335 379 460 501 517 544 575 582 555 547 611 641 666 727 681 676 740 1164 1252 1272 859 1054 822 449 258 247 506 390 126 44 16 2 0 0 0 0 0 0 0 0 0
0 0 0 611 902 822 685 465 464 536 708 753 772 814 816 776 734 790 871 792 843 791 720 680 702 623 471 342 249 136 76 506 492 660 666 666 669 431 461 212 59 225 241 100 222 176 333 480 616 649 621 563 540 509 520 544 542 626 758 698 711 755 982 1229 1339 1173 1211 1057 654 456 473 413 352 154 77 24 1 0 0 0 0 0 0 0 0
0 0 259 387 682 585 443 436 544 657 751 757 684 602 593 682 680 725 765 665 589 590 668 640 659 665 548 466 20 20 434 508 100 127 580 802 912 1013 786 755 454 324 43 22 146 165 18 92 166 262 298 390 473 486 442 453 449 436 452 622 680 664 777 943 1116 1336 1067 1326 853 769 481 531 576 336 179 63 34 13 0 0 0 0 0 0 0
0 0 0 285 314 301 333 435 501 572 488 396 380 287 426 523 675 779 874 772 626 514 509 476 523 590 576 478 476 459 518 428 266 275 206 413 653 637 641 607 584 370 224 74 2 0 2 89 182 338 572 492 339 328 380 372 371 373 384 369 434 530 574 575 636 1192 1473 1273 1068 934 673 559 483 582 355 182 84 56 27 2 0 0 0 0 1
0 0 0 0 0 0 0 309 418 395 302 256 365 398 384 299 419 499 676 709 650 673 560 609 568 529 590 564 502 536 522 407 47 188 1 209 373 496 256 226 380 468 421 369 139 36 85 349 513 397 336 448 455 328 241 250 286 307 355 368 375 384 431 435 540 537 637 1242 1053 771 794 687 586 574 552 318 245 142 72 37 8 2 2 2 2
0 0 0 0 0 0 0 36 33 24 0 28 244 93 86 50 75 346 424 453 455 488 542 510 498 563 539 603 508 494 440 359 264 258 125 46 63 143 69 34 27 0 0 43 347 378 493 564 570 526 603 595 454 324 265 274 250 218 108 207 270 294 345 388 450 539 516 376 432 880 760 832 869 814 633 502 315 267 240 97 50 23 10 5 3
0 0 0 0 0 0 0 0 0 0 0 0 0 0 0 0 0 0 0 209 212 270 333 310 316 408 545 566 492 528 62 0 0 31 82 45 58 8 0 7 19 0 0 0 0 146 247 259 314 512 590 519 505 461 455 430 319 256 259 290 274 244 278 352 355 334 362 360 325 328 940 949 896 848 653 547 508 453 368 255 154 218 93 46 11
0 0 0 0 0 0 0 0 0 0 0 0 0 0 0 0 0 0 0 0 0 0 0 0 28 0 50 409 491 292 185 0 0 2 5 6 1 0 0 0 0 0 0 0 0 0 0 167 402 486 610 502 464 574 583 566 498 357 368 285 228 294 225 259 296 316 303 354 365 411 424 793 775 1117 770 488 510 511 555 390 366 396 315 275 225
0 0 0 0 0 0 0 0 0 0 0 0 0 0 0 0 0 0 0 0 0 0 0 0 0 0 0 80 112 144 109 0 0 0 0 0 1 0 16 3 0 0 0 0 0 0 0 0 50 47 0 0 303 674 610 525 387 333 295 433 365 349 350 418 402 431 463 414 317 274 328 474 669 509 438 480 467 436 478 534 602 488 460 396 382
0 0 0 0 0 0 0 0 0 0 0 0 0 0 0 0 0 0 0 0 0 0 0 0 0 0 0 0 0 0 0 0 0 0 0 0 0 0 2 0 0 0 0 0 0 0 0 0 3 24 0 0 207 227 192 82 165 300 362 390 394 276 351 311 323 359 451 456 474 392 464 401 224 312 438 401 417 401 393 403 460 445 410 527 437
0 0 0 0 0 0 0 0 0 0 0 0 0 0 0 0 0 0 0 0 0 0 0 0 0 0 0 0 0 0 0 0 0 0 0 0 0 0 0 0 0 0 0 0 0 0 0 0 0 0 0 66 165 194 118 38 96 151 162 154 193 227 216 275 273 262 347 298 206 0 274 281 219 307 286 314 462 494 354 415 440 337 349 346 335
0 0 0 0 0 0 0 0 0 0 0 0 0 0 0 0 0 0 0 0 0 0 0 0 0 0 0 0 0 0 0 0 0 0 0 0 0 0 0 0 0 0 0 0 0 0 0 0 0 0 0 0 63 82 80 0 52 124 124 106 64 59 65 71 105 57 31 15 22 55 53 52 86 110 48 4 0 137 286 406 464 415 360 422 392
0 0 0 0 0 0 0 0 0 0 0 0 0 0 0 0 0 0 0 0 0 0 0 0 0 0 0 0 0 0 0 0 0 0 0 0 0 0 0 0 0 0 0 0 0 0 0 0 0 0 0 0 66 78 44 50 91 79 78 82 25 3 0 0 0 0 0 0 0 0 0 0 0 0 0 0 0 0 0 0 0 107 246 295 299
0 0 0 0 0 0 0 0 0 0 0 0 0 0 0 0 0 0 0 0 0 0 0 0 0 0 0 0 0 0 0 0 0 0 0 0 0 0 0 0 0 0 0 0 0 0 0 0 0 0 57 108 92 130 161 167 146 123 87 70 0 0 0 0 0 0 0 0 0 0 0 0 0 0 0 0 0 0 0 0 0 0 0 0 123
0 0 0 0 0 0 0 0 0 0 0 0 0 0 0 0 0 0 0 0 0 0 0 0 0 0 0 0 0 0 0 0 0 0 0 0 0 0 0 0 0 0 0 0 0 0 0 0 0 0 0 0 14 0 26 123 144 113 62 0 0 0 0 0 0 0 0 0 0 0 0 0 0 0 0 0 0 0 0 0 0 0 0 0 0
0 0 0 0 0 0 0 0 0 0 0 0 0 0 0 0 0 0 0 0 0 0 0 0 0 0 0 0 0 0 0 0 0 0 0 0 0 0 0 0 0 0 0 0 0 0 0 0 0 0 0 0 0 0 0 0 0 0 0 0 0 0 0 0 0 0 0 0 0 0 0 0 0 0 0 0 0 0 0 0 0 0 0 0 0
0 0 0 0 0 0 0 0 0 0 0 0 0 0 0 0 0 0 0 0 0 0 0 0 0 0 0 0 0 0 0 0 0 0 0 0 0 0 0 0 0 0 0 0 0 0 0 0 0 0 0 0 0 0 0 0 0 0 0 0 0 0 0 0 0 0 0 0 0 0 0 0 0 0 0 0 0 0 0 0 0 0 0 0 0
0 0 0 0 0 0 0 0 0 0 0 0 0 0 0 0 0 0 0 0 0 0 0 0 0 0 0 0 0 0 0 0 0 0 0 0 0 0 0 0 0 0 0 0 0 0 0 0 0 0 0 0 0 0 0 0 0 0 0 0 0 0 0 0 0 0 0 0 0 0 0 0 0 0 0 0 0 0 0 0 0 0 0 0 0
71 68 0 0 0 0 0 0 0 0 0 0 0 0 0 0 0 0 0 0 0 0 0 0 0 0 0 0 0 0 0 0 0 0 0 0 0 0 0 0 0 0 0 0 0 0 0 0 0 0 0 0 0 0 0 0 0 0 0 0 0 0 0 0 0 0 0 0 0 0 0 0 0 0 0 0 0 0 0 0 0 0 0 0 0
124 3 8 15 17 8 1 0 0 0 0 0 0 0 0 0 0 0 0 0 0 0 0 0 0 0 0 0 0 0 0 0 0 0 0 0 0 0 0 0 0 0 0 0 0 0 0 0 0 0 0 0 0 0 0 0 0 0 0 0 0 0 0 0 0 0 0 0 0 0 0 0 0 0 0 0 0 0 0 0 0 0 0 0 0
183 0 0 4 3 0 0 1 2 6 0 0 0 0 0 0 0 0 0 0 0 0 0 0 0 0 0 0 0 0 0 0 0 0 0 0 0 0 0 0 0 0 0 0 0 0 0 0 0 0 0 0 0 0 0 0 0 0 0 0 0 0 0 0 0 0 0 0 0 0 0 0 0 0 0 0 0 0 0 0 0 0 0 0 0
0 0 0 0 0 96 0 0 3 4 2 84 8 6 1 0 0 0 0 0 0 0 0 0 0 0 0 0 0 0 0 0 0 0 0 0 0 0 0 0 0 0 0 0 0 0 0 0 0 0 0 0 0 0 0 0 0 0 0 0 0 0 0 0 0 0 0 0 0 0 0 0 0 0 0 0 0 0 0 0 0 0 0 0 0
0 0 0 0 0 11 244 0 0 36 267 7 40 20 3 4 1 0 0 0 0 0 0 0 0 0 0 0 0 0 0 0 0 0 0 0 0 0 0 0 0 0 0 0 0 0 0 0 0 0 0 0 0 0 0 0 0 0 0 0 0 0 0 0 0 0 0 0 0 0 0 0 0 0 0 0 0 0 0 0 0 0 0 0 0
0 0 0 8 0 111 232 319 360 368 369 358 360 362 232 85 8 8 174 162 0 0 8 0 0 0 0 0 0 0 0 0 0 0 0 0 0 0 0 0 0 0 0 0 0 0 0 0 0 0 0 0 0 0 0 0 0 0 0 0 0 0 0 0 0 0 0 0 0 0 0 0 0 0 0 0 0 0 0 0 0 0 0 0 0
28 333 16 6 269 222 214 292 445 471 491 441 415 424 362 332 300 95 22 236 226 229 223 210 176 42 0 0 0 0 0 0 13 9 2 0 0 0 0 0 0 0 0 0 0 0 0 0 0 0 0 0 0 0 0 0 0 0 0 0 0 0 0 0 0 0 0 0 0 0 0 0 0 0 0 0 0 0 0 0 0 0 0 0 0
98 44 64 299 318 266 149 412 564 548 535 510 372 0 0 16 40 48 59 59 254 254 228 217 193 166 123 99 0 0 0 0 19 19 14 5 3 1 0 0 0 0 0 0 0 0 0 0 0 0 0 0 0 0 0 0 0 0 0 0 0 0 0 0 0 0 0 0 0 0 0 0 0 0 0 0 0 0 0 0 0 0 0 0 0
75 26 66 87 247 247 330 393 401 409 372 290 282 257 192 80 90 92 86 104 144 262 249 233 209 183 140 125 100 83 48 23 28 36 35 24 12 9 9 3 0 0 0 0 0 0 0 0 0 0 0 0 0 0 0 0 0 0 0 0 0 0 0 0 0 0 0 0 0 0 0 0 0 0 0 0 0 0 0 0 0 0 0 0 0
362 253 66 576 722 697 644 628 632 609 576 510 519 502 490 464 426 378 336 306 264 238 219 200 231 205 179 151 141 124 104 55 46 16 5 12 13 10 7 1 0 0 0 0 0 0 0 0 0 0 0 0 0 0 0 0 0 0 0 0 0 0 0 0 0 0 0 0 0 0 0 0 0 0 0 0 0 0 0 0 0 0 0 0 0
634 747 727 751 725 638 512 501 507 552 580 588 595 578 565 539 497 485 469 466 456 440 422 390 376 316 285 223 165 3 1 0 51 15 14 11 5 8 3 2 3 0 0 0 0 0 0 0 0 0 0 0 0 0 0 0 0 0 0 0 0 0 0 0 0 0 0 0 0 0 0 0 0 0 0 0 0 0 0 0 0 0 0 0 0
142 205 258 238 268 348 424 450 466 553 606 617 614 578 539 516 507 529 539 523 522 501 479 474 448 393 314 250 216 156 136 119 100 78 44 26 7 21 13 8 9 0 0 0 0 0 0 0 0 0 0 0 0 0 0 0 0 0 0 0 0 0 0 0 0 0 0 0 0 0 0 0 0 0 0 0 0 0 0 0 0 0 0 0 0
110 138 147 114 38 61 207 313 397 538 674 714 660 590 526 485 425 365 326 309 335 349 368 391 359 308 263 232 193 157 157 118 36 73 14 21 16 10 18 8 8 2 0 0 0 0 0 0 0 0 0 0 0 0 0 0 0 0 0 0 0 0 0 0 0 0 0 0 0 0 0 0 0 0 0 0 0 0 0 0 0 0 0 0 0
0 0 0 0 0 0 0 0 282 451 672 723 656 587 488 389 347 294 250 220 224 255 284 303 320 347 361 339 269 203 121 82 12 25 20 19 9 11 10 9 4 0 0 0 0 0 0 0 0 0 0 0 0 0 0 0 0 0 0 0 0 0 0 0 0 0 0 0 0 0 0 0 0 0 0 0 0 0 0 0 0 0 0 0 0
0 0 0 0 0 0 0 0 183 397 540 602 601 504 398 320 228 71 0 0 0 0 152 188 233 282 278 248 142 0 26 12 31 32 5 4 0 1 2 1 0 0 0 0 0 0 0 0 0 0 0 0 0 0 0 0 0 0 0 0 0 0 0 0 0 0 0 0 0 0 0 0 0 0 0 0 0 0 0 0 0 0 0 0 0
0 0 0 0 0 0 0 0 16 248 442 485 446 337 230 189 117 0 0 0 0 0 0 0 104 105 0 30 0 8 16 7 9 12 12 11 12 2 3 0 0 0 0 0 0 0 0 0 0 0 0 0 0 0 0 0 0 0 0 0 0 0 0 0 0 0 0 0 0 0 0 0 0 0 0 0 0 0 0 0 0 0 0 0 0
0 0 0 0 0 0 0 0 0 22 267 339 375 334 277 205 132 0 0 0 0 0 0 0 0 0 0 0 50 27 13 6 6 10 5 8 4 1 0 0 0 0 0 0 0 0 0 0 0 0 0 0 0 0 0 0 0 0 0 0 0 0 0 0 0 0 0 0 0 0 0 0 0 0 0 0 0 0 0 0 0 0 0 0 0
0 0 0 0 0 0 0 0 0 0 108 250 330 347 274 189 137 0 0 0 0 0 0 0 0 0 0 0 24 16 6 6 9 7 4 1 1 0 0 0 0 0 0 0 0 0 0 0 0 0 0 0 0 0 0 0 0 0 0 0 0 0 0 0 0 0 0 0 0 0 0 0 0 0 0 1 0 0 0 0 0 0 0 0 0
Wind_Speed
18 18 18 17 17 17 18 17 17 15 16 15 16 15 15 15 16 16 16 17 18 17 18 nan nan nan nan nan nan nan nan 21 21 22 22 23 27 28 26 28 29 27 27 28 29 29 29 28 25 26 nan nan nan nan nan nan 22 21 23 23 nan nan nan nan nan nan nan nan nan nan nan nan nan nan nan nan nan nan nan nan nan nan nan nan nan
16 15 16 15 15 16 17 17 16 15 15 15 15 16 15 16 17 16 16 16 17 17 19 nan nan nan nan nan 21 nan nan 21 22 22 21 20 21 26 25 28 29 28 28 27 28 29 30 29 27 26 25 nan nan nan nan nan 23 nan 22 24 23 nan nan nan nan nan nan nan nan nan nan nan nan nan nan nan nan nan nan nan nan nan nan nan nan
14 13 14 15 14 15 15 17 17 15 15 16 16 16 17 16 17 16 16 16 15 17 nan nan nan nan nan nan 19 nan nan 21 23 23 21 19 20 22 24 26 29 29 30 28 26 27 29 30 29 28 28 25 24 nan nan nan nan nan 22 24 25 nan nan nan nan nan nan nan nan nan nan nan nan nan nan nan nan nan nan nan nan nan nan nan nan
13 12 14 14 14 14 15 17 16 16 16 16 15 16 17 17 17 16 16 17 16 19 nan nan nan nan nan nan 19 nan nan 21 22 23 22 22 21 21 24 26 27 29 31 30 27 26 28 28 30 29 28 26 25 25 25 nan nan nan 23 25 27 25 nan nan nan nan nan nan nan nan nan nan nan nan nan nan nan nan nan nan nan nan nan nan nan
11 12 13 14 14 14 15 16 16 16 16 15 16 17 17 17 16 16 18 19 19 19 nan nan nan nan nan nan nan nan nan 19 20 22 23 24 25 24 24 25 27 27 30 31 28 27 26 26 29 28 29 28 26 26 26 25 nan nan nan 28 28 26 25 nan nan nan nan nan nan nan nan nan nan nan nan nan nan nan nan nan nan nan nan nan nan
11 12 13 13 12 13 14 15 15 16 16 16 17 17 17 17 15 17 19 20 20 20 20 nan nan nan nan nan nan nan nan 18 18 21 23 24 24 24 24 25 26 28 30 30 29 28 26 26 26 27 28 28 28 27 28 28 27 nan nan 29 27 26 26 27 nan nan nan nan nan nan nan nan nan nan nan nan nan nan nan nan nan nan nan nan nan
12 13 13 12 11 12 13 13 16 17 17 16 16 16 16 15 17 18 20 21 22 20 20 21 nan nan nan nan nan nan nan 17 18 19 20 22 24 24 25 25 25 27 29 32 31 28 26 26 26 27 27 28 28 28 29 30 29 27 nan 28 30 nan 25 27 28 nan nan nan nan nan nan nan nan nan nan nan nan nan nan nan nan nan nan nan nan
15 16 13 12 13 14 14 15 16 17 17 17 17 17 16 17 19 20 21 21 22 21 20 21 22 nan nan nan nan nan nan nan 18 17 18 21 22 24 25 26 25 26 27 28 31 33 28 26 26 27 28 26 26 27 28 30 30 29 nan nan nan nan 27 26 28 30 nan nan nan nan nan nan nan nan nan nan nan nan nan nan nan nan nan nan nan
16 16 14 15 18 19 16 17 15 17 18 18 18 18 18 19 19 18 18 20 21 21 21 nan nan 21 20 nan nan 18 nan nan nan 20 21 21 20 22 25 26 27 24 26 27 30 34 34 29 27 27 27 26 25 25 25 27 28 30 29 28 nan nan nan nan 27 29 31 nan nan nan nan nan nan nan nan nan nan nan nan nan nan nan nan nan nan
15 16 14 16 16 13 16 15 14 17 19 19 18 18 19 18 20 18 17 19 19 20 20 nan nan nan nan 20 19 nan 20 nan nan nan 24 23 21 19 20 24 27 26 27 28 29 33 37 37 33 28 27 26 26 26 23 23 26 27 30 29 28 28 29 nan 27 28 30 32 nan nan nan nan nan nan nan nan nan nan nan nan nan nan nan nan nan
14 15 14 16 15 13 15 14 15 15 22 22 18 18 19 19 19 19 18 19 18 17 18 nan nan nan 20 nan 19 20 19 21 nan nan 23 22 23 22 19 19 23 25 26 27 27 30 34 39 39 36 34 31 27 26 23 23 23 25 28 29 29 28 28 29 28 28 28 30 31 nan nan nan nan nan nan nan nan nan nan nan nan nan nan nan nan
14 14 14 14 13 13 12 12 13 16 21 17 16 15 17 18 19 19 19 19 18 18 18 20 20 nan nan nan 19 19 20 21 22 23 22 21 23 22 21 19 19 20 22 24 26 28 30 35 39 39 36 33 30 27 25 24 24 25 24 26 27 28 29 30 28 27 27 29 30 31 nan nan nan nan nan nan nan nan nan nan nan nan nan nan nan
14 14 14 13 13 12 10 11 14 17 17 15 14 15 14 16 18 19 19 19 18 17 18 19 21 20 20 20 20 19 20 21 22 23 21 20 22 23 21 22 18 17 19 21 24 27 28 30 35 40 38 35 33 29 26 24 23 23 20 22 23 24 27 29 28 28 nan 27 29 29 29 nan nan nan nan nan nan nan nan nan nan nan nan nan nan
14 15 15 15 14 12 12 13 15 16 17 16 16 16 17 17 19 21 20 20 19 18 17 20 20 20 21 20 20 20 21 22 22 20 19 nan nan 21 19 19 20 18 18 17 17 20 24 27 32 37 39 37 34 33 30 27 24 20 20 20 20 20 22 25 27 28 27 nan 26 27 29 nan nan nan nan nan nan nan nan nan nan nan nan nan nan
15 14 14 13 14 14 14 16 17 18 19 19 19 19 19 18 20 22 21 22 21 18 17 19 19 19 19 20 19 20 nan 20 18 18 18 18 18 19 18 16 18 20 19 19 17 16 18 22 26 33 38 38 36 34 31 29 25 21 19 19 18 16 18 21 23 24 25 26 26 27 30 28 nan nan nan nan nan nan nan nan nan nan nan nan nan
nan 13 13 13 13 14 17 18 19 20 21 20 20 20 21 22 22 23 24 23 21 20 20 20 19 20 19 19 19 20 20 nan 18 16 15 17 19 19 19 nan 17 19 22 23 21 20 18 18 20 27 34 38 38 37 34 31 25 21 19 19 18 17 16 18 20 21 22 24 25 26 30 27 27 nan nan nan nan nan nan nan nan nan nan nan nan
nan nan nan 13 15 16 17 18 19 21 22 22 22 21 21 22 23 24 23 23 21 20 20 20 21 20 21 22 21 21 nan 19 20 18 18 18 19 20 19 16 nan 20 22 nan 20 19 19 19 19 20 28 37 41 40 37 34 31 28 23 20 19 18 17 17 18 19 19 21 22 22 25 26 26 26 nan nan nan nan nan nan nan nan nan nan nan
nan nan 15 16 16 16 17 19 20 22 23 24 24 25 24 24 22 23 23 22 22 22 20 21 21 22 22 22 nan nan 20 19 20 20 19 18 18 18 18 17 19 20 nan nan 19 20 nan nan 19 20 20 29 36 40 40 38 35 33 31 27 22 19 18 18 17 18 19 20 19 18 19 23 24 24 25 nan nan nan nan nan nan nan nan nan nan
nan nan nan 16 17 17 18 19 20 21 22 24 24 24 24 23 23 23 22 22 23 22 20 20 22 21 23 24 24 23 21 22 21 21 21 19 19 19 18 18 19 20 19 nan nan nan nan nan 19 21 21 22 25 31 39 42 41 37 33 30 27 24 21 21 20 17 18 20 20 20 21 19 19 21 23 25 nan nan nan nan nan nan nan nan nan
nan nan nan nan nan nan nan 19 20 20 21 22 22 21 23 23 23 23 23 23 22 22 22 23 21 21 22 23 23 24 24 23 nan 22 nan 22 21 19 20 21 19 19 18 17 17 nan nan 16 13 14 16 17 19 25 33 42 45 43 40 35 31 29 26 24 21 22 22 20 20 25 20 20 19 20 23 24 26 26 nan nan nan nan nan nan nan
nan nan nan nan nan nan nan nan nan nan nan nan 20 nan nan nan nan 23 24 23 23 23 24 23 23 22 23 24 25 25 25 24 24 24 24 nan nan 22 nan nan nan nan nan nan 18 18 18 17 15 14 13 14 16 20 25 34 41 45 46 43 39 33 30 28 25 24 22 24 25 25 22 20 20 22 23 25 28 24 23 nan nan nan nan nan nan
nan nan nan nan nan nan nan nan nan nan nan nan nan nan nan nan nan nan nan 25 24 26 26 25 25 26 24 23 25 25 nan nan nan nan nan nan nan nan nan nan nan nan nan nan nan 22 19 19 20 18 17 15 15 16 18 21 30 39 43 47 48 45 36 31 29 28 26 26 27 26 23 22 21 20 22 23 24 24 25 23 23 20 nan nan nan
nan nan nan nan nan nan nan nan nan nan nan nan nan nan nan nan nan nan nan nan nan nan nan nan nan nan nan 26 26 26 26 nan nan nan nan nan nan nan nan nan nan nan nan nan nan nan nan 28 25 22 19 17 16 18 19 20 26 30 35 39 42 45 44 38 35 34 33 33 31 29 26 24 22 22 21 22 24 24 26 27 26 24 25 24 24
nan nan nan nan nan nan nan nan nan nan nan nan nan nan nan nan nan nan nan nan nan nan nan nan nan nan nan nan 27 28 29 nan nan nan nan nan nan nan nan nan nan nan nan nan nan nan nan nan nan nan nan nan 23 22 23 24 25 26 25 29 35 39 42 41 40 38 38 38 36 36 32 29 26 27 25 23 21 22 25 26 25 24 25 25 26
nan nan nan nan nan nan nan nan nan nan nan nan nan nan nan nan nan nan nan nan nan nan nan nan nan nan nan nan nan nan nan nan nan nan nan nan nan nan nan nan nan nan nan nan nan nan nan nan nan nan nan nan 27 25 24 nan 25 24 22 25 29 30 37 45 44 39 36 37 40 40 37 36 34 33 31 28 26 22 23 27 27 30 29 32 28
nan nan nan nan nan nan nan nan nan nan nan nan nan nan nan nan nan nan nan nan nan nan nan nan nan nan nan nan nan nan nan nan nan nan nan nan nan nan nan nan nan nan nan nan nan nan nan nan nan nan nan nan 28 28 29 nan nan 29 27 25 26 29 31 35 35 31 27 30 37 nan 37 36 33 32 33 34 33 32 30 31 35 35 34 35 34
nan nan nan nan nan nan nan nan nan nan nan nan nan nan nan nan nan nan nan nan nan nan nan nan nan nan nan nan nan nan nan nan nan nan nan nan nan nan nan nan nan nan nan nan nan nan nan nan nan nan nan nan nan nan nan nan nan 31 29 26 nan nan nan nan 27 nan nan nan nan nan nan nan nan 33 nan nan nan 37 38 39 38 36 36 36 38
nan nan nan nan nan nan nan nan nan nan nan nan nan nan nan nan nan nan nan nan nan nan nan nan nan nan nan nan nan nan nan nan nan nan nan nan nan nan nan nan nan nan nan nan nan nan nan nan nan nan nan nan nan nan nan nan nan nan nan nan nan nan nan nan nan nan nan nan nan nan nan nan nan nan nan nan nan nan nan nan nan 34 32 32 34
nan nan nan nan nan nan nan nan nan nan nan nan nan nan nan nan nan nan nan nan nan nan nan nan nan nan nan nan nan nan nan nan nan nan nan nan nan nan nan nan nan nan nan nan nan nan nan nan nan nan nan 25 nan 25 27 27 28 28 nan nan nan nan nan nan nan nan nan nan nan nan nan nan nan nan nan nan nan nan nan nan nan nan nan nan 30
nan nan nan nan nan nan nan nan nan nan nan nan nan nan nan nan nan nan nan nan nan nan nan nan nan nan nan nan nan nan nan nan nan nan nan nan nan nan nan nan nan nan nan nan nan nan nan nan nan nan nan nan nan nan nan 26 29 28 nan nan nan nan nan nan nan nan nan nan nan nan nan nan nan nan nan nan nan nan nan nan nan nan nan nan nan
nan nan nan nan nan nan nan nan nan nan nan nan nan nan nan nan nan nan nan nan nan nan nan nan nan nan nan nan nan nan nan nan nan nan nan nan nan nan nan nan nan nan nan nan nan nan nan nan nan nan nan nan nan nan nan nan nan nan nan nan nan nan nan nan nan nan nan nan nan nan nan nan nan nan nan nan nan nan nan nan nan nan nan nan nan
nan nan nan nan nan nan nan nan nan nan nan nan nan nan nan nan nan nan nan nan nan nan nan nan nan nan nan nan nan nan nan nan nan nan nan nan nan nan nan nan nan nan nan nan nan nan nan nan nan nan nan nan nan nan nan nan nan nan nan nan nan nan nan nan nan nan nan nan nan nan nan nan nan nan nan nan nan nan nan nan nan nan nan nan nan
nan nan nan nan nan nan nan nan nan nan nan nan nan nan nan nan nan nan nan nan nan nan nan nan nan nan nan nan nan nan nan nan nan nan nan nan nan nan nan nan nan nan nan nan nan nan nan nan nan nan nan nan nan nan nan nan nan nan nan nan nan nan nan nan nan nan nan nan nan nan nan nan nan nan nan nan nan nan nan nan nan nan nan nan nan
nan nan nan nan nan nan nan nan nan nan nan nan nan nan nan nan nan nan nan nan nan nan nan nan nan nan nan nan nan nan nan nan nan nan nan nan nan nan nan nan nan nan nan nan nan nan nan nan nan nan nan nan nan nan nan nan nan nan nan nan nan nan nan nan nan nan nan nan nan nan nan nan nan nan nan nan nan nan nan nan nan nan nan nan nan
20 nan nan nan nan nan nan nan nan nan nan nan nan nan nan nan nan nan nan nan nan nan nan nan nan nan nan nan nan nan nan nan nan nan nan nan nan nan nan nan nan nan nan nan nan nan nan nan nan nan nan nan nan nan nan nan nan nan nan nan nan nan nan nan nan nan nan nan nan nan nan nan nan nan nan nan nan nan nan nan nan nan nan nan nan
18 nan nan nan nan nan nan nan nan nan nan nan nan nan nan nan nan nan nan nan nan nan nan nan nan nan nan nan nan nan nan nan nan nan nan nan nan nan nan nan nan nan nan nan nan nan nan nan nan nan nan nan nan nan nan nan nan nan nan nan nan nan nan nan nan nan nan nan nan nan nan nan nan nan nan nan nan nan nan nan nan nan nan nan nan
nan nan nan nan nan nan nan nan nan nan nan nan nan nan nan nan nan nan nan nan nan nan nan nan nan nan nan nan nan nan nan nan nan nan nan nan nan nan nan nan nan nan nan nan nan nan nan nan nan nan nan nan nan nan nan nan nan nan nan nan nan nan nan nan nan nan nan nan nan nan nan nan nan nan nan nan nan nan nan nan nan nan nan nan nan
nan nan nan nan nan nan 13 nan nan nan 22 nan nan nan nan nan nan nan nan nan nan nan nan nan nan nan nan nan nan nan nan nan nan nan nan nan nan nan nan nan nan nan nan nan nan nan nan nan nan nan nan nan nan nan nan nan nan nan nan nan nan nan nan nan nan nan nan nan nan nan nan nan nan nan nan nan nan nan nan nan nan nan nan nan nan
nan nan nan nan nan 16 14 16 17 20 22 23 23 23 24 nan nan nan 22 23 nan nan nan nan nan nan nan nan nan nan nan nan nan nan nan nan nan nan nan nan nan nan nan nan nan nan nan nan nan nan nan nan nan nan nan nan nan nan nan nan nan nan nan nan nan nan nan nan nan nan nan nan nan nan nan nan nan nan nan nan nan nan nan nan nan
nan 26 nan nan 23 21 20 20 21 24 26 26 24 24 26 25 25 nan nan 26 26 26 25 25 26 nan nan nan nan nan nan nan nan nan nan nan nan nan nan nan nan nan nan nan nan nan nan nan nan nan nan nan nan nan nan nan nan nan nan nan nan nan nan nan nan nan nan nan nan nan nan nan nan nan nan nan nan nan nan nan nan nan nan nan nan
nan nan nan 21 21 22 23 26 26 28 28 27 25 nan nan nan nan nan nan nan 28 28 28 28 28 28 28 nan nan nan nan nan nan nan nan nan nan nan nan nan nan nan nan nan nan nan nan nan nan nan nan nan nan nan nan nan nan nan nan nan nan nan nan nan nan nan nan nan nan nan nan nan nan nan nan nan nan nan nan nan nan nan nan nan nan
nan nan nan nan 24 25 27 27 27 28 28 28 26 24 26 nan nan nan nan 30 30 31 31 30 30 31 31 32 32 nan nan nan nan nan nan nan nan nan nan nan nan nan nan nan nan nan nan nan nan nan nan nan nan nan nan nan nan nan nan nan nan nan nan nan nan nan nan nan nan nan nan nan nan nan nan nan nan nan nan nan nan nan nan nan nan
34 35 nan 31 31 31 31 31 31 30 29 28 26 28 27 28 32 32 32 31 32 32 33 32 32 32 34 37 38 40 41 nan nan nan nan nan nan nan nan nan nan nan nan nan nan nan nan nan nan nan nan nan nan nan nan nan nan nan nan nan nan nan nan nan nan nan nan nan nan nan nan nan nan nan nan nan nan nan nan nan nan nan nan nan nan
32 35 36 35 34 34 33 33 32 31 30 28 27 29 31 31 32 34 35 35 35 34 34 34 34 35 36 39 42 nan nan nan nan nan nan nan nan nan nan nan nan nan nan nan nan nan nan nan nan nan nan nan nan nan nan nan nan nan nan nan nan nan nan nan nan nan nan nan nan nan nan nan nan nan nan nan nan nan nan nan nan nan nan nan nan
35 35 34 35 34 33 33 33 32 32 31 32 31 31 33 33 32 34 35 37 37 37 37 36 36 37 40 42 43 43 43 48 49 nan nan nan nan nan nan nan nan nan nan nan nan nan nan nan nan nan nan nan nan nan nan nan nan nan nan nan nan nan nan nan nan nan nan nan nan nan nan nan nan nan nan nan nan nan nan nan nan nan nan nan nan
40 39 37 36 nan nan 34 34 34 34 34 35 34 33 34 35 36 38 37 38 38 38 39 38 39 41 43 45 46 46 46 46 nan nan nan nan nan nan nan nan nan nan nan nan nan nan nan nan nan nan nan nan nan nan nan nan nan nan nan nan nan nan nan nan nan nan nan nan nan nan nan nan nan nan nan nan nan nan nan nan nan nan nan nan nan
nan nan nan nan nan nan nan nan 37 37 39 40 38 38 37 40 41 41 41 40 39 39 40 41 42 45 47 48 49 50 49 nan nan nan nan nan nan nan nan nan nan nan nan nan nan nan nan nan nan nan nan nan nan nan nan nan nan nan nan nan nan nan nan nan nan nan nan nan nan nan nan nan nan nan nan nan nan nan nan nan nan nan nan nan nan
nan nan nan nan nan nan nan nan 42 40 41 41 42 41 40 43 47 nan nan nan nan nan 44 45 46 47 49 50 51 nan nan nan nan nan nan nan nan nan nan nan nan nan nan nan nan nan nan nan nan nan nan nan nan nan nan nan nan nan nan nan nan nan nan nan nan nan nan nan nan nan nan nan nan nan nan nan nan nan nan nan nan nan nan nan nan
nan nan nan nan nan nan nan nan nan 43 44 44 44 45 46 51 49 nan nan nan nan nan nan nan 48 48 nan nan nan nan nan nan nan nan nan nan nan nan nan nan nan nan nan nan nan nan nan nan nan nan nan nan nan nan nan nan nan nan nan nan nan nan nan nan nan nan nan nan nan nan nan nan nan nan nan nan nan nan nan nan nan nan nan nan nan
nan nan nan nan nan nan nan nan nan nan 46 47 46 45 51 53 53 nan nan nan nan nan nan nan nan nan nan nan nan nan nan nan nan nan nan nan nan nan nan nan nan nan nan nan nan nan nan nan nan nan nan nan nan nan nan nan nan nan nan nan nan nan nan nan nan nan nan nan nan nan nan nan nan nan nan nan nan nan nan nan nan nan nan nan nan
nan nan nan nan nan nan nan nan nan nan 49 49 51 48 47 56 55 nan nan nan nan nan nan nan nan nan nan nan nan nan nan nan nan nan nan nan nan nan nan nan nan nan nan nan nan nan nan nan nan nan nan nan nan nan nan nan nan nan nan nan nan nan nan nan nan nan nan nan nan nan nan nan nan nan nan nan nan nan nan nan nan nan nan nan nan
Wind_Direction
274 272 270 271 271 270 269 269 267 265 259 260 262 265 262 261 257 254 252 251 251 247 249 nan nan nan nan nan nan nan nan 238 243 251 257 253 240 235 243 244 249 251 258 259 259 259 256 255 255 257 nan nan nan nan nan nan 260 266 269 264 nan nan nan nan nan nan nan nan nan nan nan nan nan nan nan nan nan nan nan nan nan nan nan nan nan
279 273 276 272 269 264 263 264 262 254 253 258 255 260 264 260 257 255 253 254 251 250 251 nan nan nan nan nan 247 nan nan 245 247 253 257 260 250 239 245 246 248 248 253 257 259 259 258 257 255 255 257 nan nan nan nan nan 259 nan 266 268 265 nan nan nan nan nan nan nan nan nan nan nan nan nan nan nan nan nan nan nan nan nan nan nan nan
277 275 270 272 268 264 259 254 255 250 247 251 250 256 257 262 262 261 256 253 254 251 nan nan nan nan nan nan 251 nan nan 244 243 248 251 252 253 247 244 251 249 248 251 254 256 259 260 259 258 254 255 255 257 nan nan nan nan nan 258 269 268 nan nan nan nan nan nan nan nan nan nan nan nan nan nan nan nan nan nan nan nan nan nan nan nan
272 271 270 268 266 261 255 255 254 252 248 247 247 249 254 254 256 257 258 258 253 253 nan nan nan nan nan nan 250 nan nan 255 248 246 245 246 246 244 242 243 250 252 251 250 249 252 260 260 261 259 257 256 256 258 260 nan nan nan 255 268 265 262 nan nan nan nan nan nan nan nan nan nan nan nan nan nan nan nan nan nan nan nan nan nan nan
271 272 270 267 264 257 254 252 251 252 247 248 251 250 250 251 250 253 255 256 257 254 nan nan nan nan nan nan nan nan nan 257 257 255 248 242 239 238 241 241 242 249 250 248 247 246 253 258 262 261 260 257 257 257 258 260 nan nan nan 264 265 263 262 nan nan nan nan nan nan nan nan nan nan nan nan nan nan nan nan nan nan nan nan nan nan
266 262 265 266 261 258 253 251 251 250 248 246 247 248 249 251 250 255 259 261 258 254 255 nan nan nan nan nan nan nan nan 265 265 264 258 254 250 244 240 240 241 242 242 244 244 245 246 250 261 261 262 259 258 257 257 256 258 nan nan 262 262 263 264 263 nan nan nan nan nan nan nan nan nan nan nan nan nan nan nan nan nan nan nan nan nan
247 249 253 258 257 248 243 244 247 246 248 248 252 252 254 254 256 256 254 255 259 256 260 260 nan nan nan nan nan nan nan 262 266 268 266 261 259 252 246 243 243 242 240 238 237 241 244 247 254 260 262 259 258 259 257 258 257 258 nan 263 263 nan 261 265 265 nan nan nan nan nan nan nan nan nan nan nan nan nan nan nan nan nan nan nan nan
256 250 245 241 236 232 221 226 238 244 247 247 247 251 253 255 254 257 258 253 258 255 254 256 255 nan nan nan nan nan nan nan 258 268 265 263 262 258 254 247 245 247 245 242 236 234 237 244 247 254 261 263 261 260 260 261 259 258 nan nan nan nan 256 263 268 269 nan nan nan nan nan nan nan nan nan nan nan nan nan nan nan nan nan nan nan
255 257 247 237 230 222 216 205 221 237 242 245 246 245 250 255 250 251 258 263 260 258 251 nan nan 254 255 nan nan 247 nan nan nan 257 262 267 265 261 256 250 246 249 251 250 242 235 232 235 241 245 255 262 260 260 260 259 262 261 260 259 nan nan nan nan 267 272 275 nan nan nan nan nan nan nan nan nan nan nan nan nan nan nan nan nan nan
262 265 259 251 242 227 217 214 206 222 231 236 238 242 243 249 254 247 254 261 258 258 250 nan nan nan nan 253 248 nan 246 nan nan nan 255 258 263 268 265 257 249 244 248 253 249 242 237 233 232 235 241 252 255 253 255 255 256 257 260 260 262 264 264 nan 263 271 276 278 nan nan nan nan nan nan nan nan nan nan nan nan nan nan nan nan nan
258 260 260 257 245 223 222 217 215 219 226 227 231 236 240 241 254 252 250 256 263 260 257 nan nan nan 252 nan 253 252 248 248 nan nan 252 253 256 258 263 264 256 249 249 253 255 251 245 239 236 236 237 237 245 252 252 250 249 251 254 259 258 263 266 266 263 268 274 279 281 nan nan nan nan nan nan nan nan nan nan nan nan nan nan nan nan
263 257 253 255 249 240 228 215 220 225 238 237 231 237 246 249 253 260 261 254 250 255 253 254 247 nan nan nan 251 255 255 248 247 248 246 244 249 253 256 263 261 255 257 259 261 260 256 247 240 238 238 239 243 246 251 250 246 244 254 261 261 259 263 268 265 266 270 277 282 283 nan nan nan nan nan nan nan nan nan nan nan nan nan nan nan
259 256 253 248 244 244 241 231 229 231 242 245 242 244 248 253 256 252 258 255 250 249 246 249 252 246 238 244 249 248 255 256 250 244 241 236 240 243 251 255 258 260 260 263 264 263 262 255 245 240 238 239 242 247 249 250 250 249 250 257 263 260 260 267 268 266 nan 270 278 283 284 nan nan nan nan nan nan nan nan nan nan nan nan nan nan
250 247 243 241 239 236 236 232 233 234 238 236 239 244 247 246 250 246 246 255 254 253 250 250 243 249 248 247 246 246 248 254 259 252 247 nan nan 240 234 248 254 254 259 269 268 267 265 261 250 242 238 238 240 244 247 250 253 255 255 251 253 257 261 267 270 271 270 nan 271 282 285 nan nan nan nan nan nan nan nan nan nan nan nan nan nan
254 252 247 241 238 234 230 231 232 234 238 236 236 241 247 251 250 255 249 248 253 254 251 249 252 251 249 250 249 250 nan 250 254 257 251 251 250 245 240 231 242 254 260 262 266 266 265 264 255 245 239 237 239 242 245 248 252 257 259 259 258 257 257 262 272 274 275 277 277 278 285 285 nan nan nan nan nan nan nan nan nan nan nan nan nan
nan 256 253 251 250 242 235 234 234 235 238 241 241 240 244 246 247 249 255 251 251 249 250 247 252 257 249 252 254 254 250 nan 252 248 248 254 254 254 253 nan 240 246 250 250 252 259 263 266 261 250 241 237 237 239 242 244 250 256 260 261 262 260 262 264 270 278 277 276 276 278 282 289 290 nan nan nan nan nan nan nan nan nan nan nan nan
nan nan nan 262 252 250 248 244 240 239 241 242 242 243 243 246 248 250 253 256 254 252 249 252 251 251 261 256 250 253 nan 252 249 248 245 251 253 262 267 264 nan 243 250 nan 256 261 263 261 257 254 246 238 236 238 240 241 243 244 248 255 262 264 263 266 267 270 273 274 275 280 280 287 293 292 nan nan nan nan nan nan nan nan nan nan nan
nan nan 255 259 259 255 251 249 244 241 239 241 242 242 244 246 249 252 252 253 257 254 252 251 255 253 255 256 nan nan 256 252 252 252 245 248 252 255 258 251 247 250 nan nan 251 244 nan nan 249 246 247 245 238 237 238 240 241 241 242 245 254 258 262 263 266 269 268 270 272 275 276 282 291 290 291 nan nan nan nan nan nan nan nan nan nan
nan nan nan 259 260 257 256 252 251 248 244 244 241 243 244 245 246 250 252 253 254 257 259 256 254 252 255 257 256 256 261 255 254 254 252 250 251 252 252 250 251 253 248 nan nan nan nan nan 251 247 253 252 246 244 240 238 237 236 236 237 243 251 255 255 255 260 267 268 269 275 275 268 278 289 291 291 nan nan nan nan nan nan nan nan nan
nan nan nan nan nan nan nan 255 253 250 250 248 248 245 246 243 246 248 249 252 258 262 260 262 258 256 254 256 256 256 253 254 nan 256 nan 259 252 243 248 252 252 249 244 249 254 nan nan 275 275 253 250 257 256 255 249 242 241 240 239 237 239 244 251 255 255 250 246 252 264 266 268 278 282 284 288 292 291 288 nan nan nan nan nan nan nan
nan nan nan nan nan nan nan nan nan nan nan nan 249 nan nan nan nan 251 253 250 254 258 260 260 257 258 257 253 256 255 254 254 253 252 254 nan nan 248 nan nan nan nan nan nan 252 253 254 265 272 260 253 254 256 257 251 244 241 241 241 237 238 245 250 255 258 259 255 249 244 259 279 283 287 282 280 283 282 288 290 nan nan nan nan nan nan
nan nan nan nan nan nan nan nan nan nan nan nan nan nan nan nan nan nan nan 257 253 257 259 258 258 259 257 259 254 251 nan nan nan nan nan nan nan nan nan nan nan nan nan nan nan 254 254 259 265 264 258 257 264 268 264 254 250 247 244 243 243 241 243 253 260 261 261 258 255 255 261 270 277 280 282 286 294 295 293 295 293 298 nan nan nan
nan nan nan nan nan nan nan nan nan nan nan nan nan nan nan nan nan nan nan nan nan nan nan nan nan nan nan 253 255 254 254 nan nan nan nan nan nan nan nan nan nan nan nan nan nan nan nan 247 253 255 255 260 266 266 264 261 257 252 241 241 245 247 244 242 247 250 250 252 253 253 257 261 265 273 273 281 294 295 296 297 299 298 299 302 302
nan nan nan nan nan nan nan nan nan nan nan nan nan nan nan nan nan nan nan nan nan nan nan nan nan nan nan nan 251 252 250 nan nan nan nan nan nan nan nan nan nan nan nan nan nan nan nan nan nan nan nan nan 252 253 257 258 261 266 257 246 244 243 244 240 241 244 247 251 251 252 254 260 266 271 275 274 280 283 279 283 287 286 290 295 297
nan nan nan nan nan nan nan nan nan nan nan nan nan nan nan nan nan nan nan nan nan nan nan nan nan nan nan nan nan nan nan nan nan nan nan nan nan nan nan nan nan nan nan nan nan nan nan nan nan nan nan nan 250 250 253 nan 257 256 250 246 247 246 243 242 243 244 245 248 251 253 252 250 251 255 260 263 265 268 268 267 269 269 268 272 271
nan nan nan nan nan nan nan nan nan nan nan nan nan nan nan nan nan nan nan nan nan nan nan nan nan nan nan nan nan nan nan nan nan nan nan nan nan nan nan nan nan nan nan nan nan nan nan nan nan nan nan nan 247 246 247 nan nan 238 241 240 238 241 242 241 239 238 234 239 245 nan 255 257 256 257 255 256 259 261 262 264 269 271 272 274 277
nan nan nan nan nan nan nan nan nan nan nan nan nan nan nan nan nan nan nan nan nan nan nan nan nan nan nan nan nan nan nan nan nan nan nan nan nan nan nan nan nan nan nan nan nan nan nan nan nan nan nan nan nan nan nan nan nan 236 237 241 nan nan nan nan 237 nan nan nan nan nan nan nan nan 258 nan nan nan 256 258 262 265 266 269 273 274
nan nan nan nan nan nan nan nan nan nan nan nan nan nan nan nan nan nan nan nan nan nan nan nan nan nan nan nan nan nan nan nan nan nan nan nan nan nan nan nan nan nan nan nan nan nan nan nan nan nan nan nan nan nan nan nan nan nan nan nan nan nan nan nan nan nan nan nan nan nan nan nan nan nan nan nan nan nan nan nan nan 266 266 268 269
nan nan nan nan nan nan nan nan nan nan nan nan nan nan nan nan nan nan nan nan nan nan nan nan nan nan nan nan nan nan nan nan nan nan nan nan nan nan nan nan nan nan nan nan nan nan nan nan nan nan nan 240 nan 240 242 244 240 238 nan nan nan nan nan nan nan nan nan nan nan nan nan nan nan nan nan nan nan nan nan nan nan nan nan nan 267
nan nan nan nan nan nan nan nan nan nan nan nan nan nan nan nan nan nan nan nan nan nan nan nan nan nan nan nan nan nan nan nan nan nan nan nan nan nan nan nan nan nan nan nan nan nan nan nan nan nan nan nan nan nan nan 241 237 237 nan nan nan nan nan nan nan nan nan nan nan nan nan nan nan nan nan nan nan nan nan nan nan nan nan nan nan
nan nan nan nan nan nan nan nan nan nan nan nan nan nan nan nan nan nan nan nan nan nan nan nan nan nan nan nan nan nan nan nan nan nan nan nan nan nan nan nan nan nan nan nan nan nan nan nan nan nan nan nan nan nan nan nan nan nan nan nan nan nan nan nan nan nan nan nan nan nan nan nan nan nan nan nan nan nan nan nan nan nan nan nan nan
nan nan nan nan nan nan nan nan nan nan nan nan nan nan nan nan nan nan nan nan nan nan nan nan nan nan nan nan nan nan nan nan nan nan nan nan nan nan nan nan nan nan nan nan nan nan nan nan nan nan nan nan nan nan nan nan nan nan nan nan nan nan nan nan nan nan nan nan nan nan nan nan nan nan nan nan nan nan nan nan nan nan nan nan nan
nan nan nan nan nan nan nan nan nan nan nan nan nan nan nan nan nan nan nan nan nan nan nan nan nan nan nan nan nan nan nan nan nan nan nan nan nan nan nan nan nan nan nan nan nan nan nan nan nan nan nan nan nan nan nan nan nan nan nan nan nan nan nan nan nan nan nan nan nan nan nan nan nan nan nan nan nan nan nan nan nan nan nan nan nan
nan nan nan nan nan nan nan nan nan nan nan nan nan nan nan nan nan nan nan nan nan nan nan nan nan nan nan nan nan nan nan nan nan nan nan nan nan nan nan nan nan nan nan nan nan nan nan nan nan nan nan nan nan nan nan nan nan nan nan nan nan nan nan nan nan nan nan nan nan nan nan nan nan nan nan nan nan nan nan nan nan nan nan nan nan
286 nan nan nan nan nan nan nan nan nan nan nan nan nan nan nan nan nan nan nan nan nan nan nan nan nan nan nan nan nan nan nan nan nan nan nan nan nan nan nan nan nan nan nan nan nan nan nan nan nan nan nan nan nan nan nan nan nan nan nan nan nan nan nan nan nan nan nan nan nan nan nan nan nan nan nan nan nan nan nan nan nan nan nan nan
269 nan nan nan nan nan nan nan nan nan nan nan nan nan nan nan nan nan nan nan nan nan nan nan nan nan nan nan nan nan nan nan nan nan nan nan nan nan nan nan nan nan nan nan nan nan nan nan nan nan nan nan nan nan nan nan nan nan nan nan nan nan nan nan nan nan nan nan nan nan nan nan nan nan nan nan nan nan nan nan nan nan nan nan nan
nan nan nan nan nan nan nan nan nan nan nan nan nan nan nan nan nan nan nan nan nan nan nan nan nan nan nan nan nan nan nan nan nan nan nan nan nan nan nan nan nan nan nan nan nan nan nan nan nan nan nan nan nan nan nan nan nan nan nan nan nan nan nan nan nan nan nan nan nan nan nan nan nan nan nan nan nan nan nan nan nan nan nan nan nan
nan nan nan nan nan nan 266 nan nan nan 277 nan nan nan nan nan nan nan nan nan nan nan nan nan nan nan nan nan nan nan nan nan nan nan nan nan nan nan nan nan nan nan nan nan nan nan nan nan nan nan nan nan nan nan nan nan nan nan nan nan nan nan nan nan nan nan nan nan nan nan nan nan nan nan nan nan nan nan nan nan nan nan nan nan nan
nan nan nan nan nan 288 289 284 291 289 285 285 287 290 290 nan nan nan 279 282 nan nan nan nan nan nan nan nan nan nan nan nan nan nan nan nan nan nan nan nan nan nan nan nan nan nan nan nan nan nan nan nan nan nan nan nan nan nan nan nan nan nan nan nan nan nan nan nan nan nan nan nan nan nan nan nan nan nan nan nan nan nan nan nan nan
nan 271 nan nan 275 280 287 292 295 294 293 295 296 292 291 288 282 nan nan 286 284 280 281 284 283 nan nan nan nan nan nan nan nan nan nan nan nan nan nan nan nan nan nan nan nan nan nan nan nan nan nan nan nan nan nan nan nan nan nan nan nan nan nan nan nan nan nan nan nan nan nan nan nan nan nan nan nan nan nan nan nan nan nan nan nan
nan nan nan 270 263 272 279 281 283 283 285 288 287 nan nan nan nan nan nan nan 286 282 282 285 284 282 278 nan nan nan nan nan nan nan nan nan nan nan nan nan nan nan nan nan nan nan nan nan nan nan nan nan nan nan nan nan nan nan nan nan nan nan nan nan nan nan nan nan nan nan nan nan nan nan nan nan nan nan nan nan nan nan nan nan nan
nan nan nan nan 277 288 286 284 282 283 284 283 284 290 286 nan nan nan nan 282 283 282 284 285 285 284 283 279 277 nan nan nan nan nan nan nan nan nan nan nan nan nan nan nan nan nan nan nan nan nan nan nan nan nan nan nan nan nan nan nan nan nan nan nan nan nan nan nan nan nan nan nan nan nan nan nan nan nan nan nan nan nan nan nan nan
274 277 nan 291 294 293 292 289 288 287 285 283 287 285 286 284 278 277 278 279 279 280 281 282 283 282 280 279 277 280 280 nan nan nan nan nan nan nan nan nan nan nan nan nan nan nan nan nan nan nan nan nan nan nan nan nan nan nan nan nan nan nan nan nan nan nan nan nan nan nan nan nan nan nan nan nan nan nan nan nan nan nan nan nan nan
284 286 292 296 295 292 290 289 289 289 286 286 284 279 277 276 273 272 273 273 273 274 276 278 277 277 276 276 276 nan nan nan nan nan nan nan nan nan nan nan nan nan nan nan nan nan nan nan nan nan nan nan nan nan nan nan nan nan nan nan nan nan nan nan nan nan nan nan nan nan nan nan nan nan nan nan nan nan nan nan nan nan nan nan nan
285 288 290 290 291 291 290 290 289 287 284 275 275 278 280 280 280 274 270 270 270 270 271 272 273 274 273 273 273 274 274 278 275 nan nan nan nan nan nan nan nan nan nan nan nan nan nan nan nan nan nan nan nan nan nan nan nan nan nan nan nan nan nan nan nan nan nan nan nan nan nan nan nan nan nan nan nan nan nan nan nan nan nan nan nan
277 276 275 275 nan nan 283 285 285 283 281 278 278 280 283 284 281 276 269 268 267 267 268 269 270 272 273 275 274 273 271 271 nan nan nan nan nan nan nan nan nan nan nan nan nan nan nan nan nan nan nan nan nan nan nan nan nan nan nan nan nan nan nan nan nan nan nan nan nan nan nan nan nan nan nan nan nan nan nan nan nan nan nan nan nan
nan nan nan nan nan nan nan nan 284 283 283 279 280 284 285 283 281 278 270 267 265 264 264 266 268 269 271 272 272 274 275 nan nan nan nan nan nan nan nan nan nan nan nan nan nan nan nan nan nan nan nan nan nan nan nan nan nan nan nan nan nan nan nan nan nan nan nan nan nan nan nan nan nan nan nan nan nan nan nan nan nan nan nan nan nan
nan nan nan nan nan nan nan nan 281 282 281 279 280 282 282 279 280 nan nan nan nan nan 264 264 265 267 270 272 273 nan nan nan nan nan nan nan nan nan nan nan nan nan nan nan nan nan nan nan nan nan nan nan nan nan nan nan nan nan nan nan nan nan nan nan nan nan nan nan nan nan nan nan nan nan nan nan nan nan nan nan nan nan nan nan nan
nan nan nan nan nan nan nan nan nan 278 279 279 280 284 284 285 278 nan nan nan nan nan nan nan 264 264 nan nan nan nan nan nan nan nan nan nan nan nan nan nan nan nan nan nan nan nan nan nan nan nan nan nan nan nan nan nan nan nan nan nan nan nan nan nan nan nan nan nan nan nan nan nan nan nan nan nan nan nan nan nan nan nan nan nan nan
nan nan nan nan nan nan nan nan nan nan 274 273 270 279 289 287 282 nan nan nan nan nan nan nan nan nan nan nan nan nan nan nan nan nan nan nan nan nan nan nan nan nan nan nan nan nan nan nan nan nan nan nan nan nan nan nan nan nan nan nan nan nan nan nan nan nan nan nan nan nan nan nan nan nan nan nan nan nan nan nan nan nan nan nan nan
nan nan nan nan nan nan nan nan nan nan 271 271 271 273 280 283 281 nan nan nan nan nan nan nan nan nan nan nan nan nan nan nan nan nan nan nan nan nan nan nan nan nan nan nan nan nan nan nan nan nan nan nan nan nan nan nan nan nan nan nan nan nan nan nan nan nan nan nan nan nan nan nan nan nan nan nan nan nan nan nan nan nan nan nan nan